Weather History for Monticello, AR

Change the Weather History Date:

Sunday, November 25, 2012

  Actual Average Record
Temperature  
Mean Temperature 47 °F -  
Max Temperature 64 °F 61 °F 81 °F (1973)
Min Temperature 30 °F 37 °F 17 °F (1950)
Degree Days  
Heating Degree Days 18    
Moisture  
Dew Point 29 °F    
Average Humidity 51    
Maximum Humidity 82    
Minimum Humidity 29    
Precipitation  
Precipitation 0.00 in - - ()
Sea Level Pressure  
Sea Level Pressure 30.09 in    
Wind  
Wind Speed 4 mph (South)    
Max Wind Speed 10 mph    
Max Gust Speed 16 mph    
Visibility 10 miles    
Events      
Averages and records for this station are not official NWS values.
T = Trace of Precipitation, MM = Missing Value Source: NWS Daily Summary

Daily Weather History Graph

Daily Weather History Graph

Search for Another Location

Airport:

Trip Planner

Search our weather history database for the weather conditions in past years. The results will help you decide how hot, cold, wet, or windy it might be!

Date:

Astronomy

Nov. 25, 2012 Rise Set
Actual Time 6:48 AM CST 4:59 PM CST
Civil Twilight 6:21 AM CST 5:26 PM CST
Nautical Twilight 5:51 AM CST 5:57 PM CST
Astronomical Twilight 5:21 AM CST 6:27 PM CST
Moon 3:12 PM CST (11/25) 4:08 AM CST (11/25)
Length of Visible Light 11h 05m
Length of Day
10h 11m
Waxing Gibbous, 93% of the Moon is Illuminated
Nov 25
Waxing Gibbous
Nov 28
Full
Dec 6
Last Quarter
Dec 13
New
Dec 19
First Quarter

Hourly Weather History & Observations

Time (CST) Temp. Windchill Dew Point Humidity Pressure Visibility Wind Dir Wind Speed Gust Speed Precip Events Conditions
12:53 AM 30.9 °F - 26.1 °F 82% 30.18 in 10.0 mi Calm Calm - N/A   Clear
1:53 AM 32.0 °F - 27.0 °F 82% 30.17 in 10.0 mi Calm Calm - N/A   Clear
2:53 AM 33.1 °F 28.7 °F 27.0 °F 78% 30.15 in 10.0 mi SSW 4.6 mph - N/A   Clear
3:53 AM 37.0 °F - 24.1 °F 59% 30.13 in 10.0 mi Calm Calm - N/A   Clear
4:53 AM 30.9 °F - 25.0 °F 79% 30.14 in 10.0 mi Calm Calm - N/A   Clear
5:53 AM 30.0 °F - 25.0 °F 82% 30.14 in 10.0 mi Calm Calm - N/A   Clear
6:53 AM 35.1 °F - 24.1 °F 64% 30.15 in 10.0 mi Calm Calm - N/A   Clear
7:53 AM 39.9 °F 33.9 °F 26.1 °F 58% 30.16 in 10.0 mi South 9.2 mph - N/A   Clear
8:53 AM 46.0 °F 41.0 °F 26.1 °F 46% 30.17 in 10.0 mi South 10.4 mph 16.1 mph N/A   Clear
9:53 AM 50.0 °F - 26.1 °F 39% 30.17 in 10.0 mi South 6.9 mph - N/A   Clear
10:53 AM 54.0 °F - 27.0 °F 35% 30.14 in 10.0 mi South 9.2 mph - N/A   Clear
11:53 AM 57.9 °F - 28.0 °F 32% 30.10 in 10.0 mi Variable 5.8 mph - N/A   Clear
12:53 PM 61.0 °F - 30.0 °F 31% 30.06 in 10.0 mi South 8.1 mph - N/A   Clear
1:53 PM 63.0 °F - 30.0 °F 29% 30.03 in 10.0 mi SSW 10.4 mph - N/A   Clear
2:53 PM 64.0 °F - 30.9 °F 29% 30.02 in 10.0 mi South 5.8 mph - N/A   Clear
3:53 PM 63.0 °F - 30.9 °F 30% 30.01 in 10.0 mi South 8.1 mph - N/A   Clear
4:53 PM 59.0 °F - 34.0 °F 39% 30.01 in 10.0 mi South 6.9 mph - N/A   Clear
5:53 PM 55.9 °F - 34.0 °F 44% 30.01 in 10.0 mi South 5.8 mph - N/A   Clear
6:53 PM 55.9 °F - 33.1 °F 42% 30.01 in 10.0 mi South 6.9 mph - N/A   Clear
7:53 PM 54.0 °F - 32.0 °F 43% 30.01 in 10.0 mi South 5.8 mph - N/A   Clear
8:53 PM 51.1 °F - 32.0 °F 48% 30.02 in 10.0 mi South 4.6 mph - N/A   Clear
9:53 PM 52.0 °F - 32.0 °F 47% 30.02 in 10.0 mi South 5.8 mph - N/A   Clear
10:53 PM 52.0 °F - 33.1 °F 49% 30.03 in 10.0 mi South 5.8 mph - N/A   Clear
11:53 PM 51.1 °F - 33.1 °F 50% 30.03 in 10.0 mi South 4.6 mph - N/A   Clear